Cedar Rapids, IA

10:43 PM CST on December 10, 2017 (GMT -0600)
The Eastern Iowa Airport

Weather History for KCID - June, 2013

Change the Weather History Date:

Wednesday, June 5, 2013

  Actual Average Record
Temperature  
Mean Temperature 62 °F 67 °F  
Max Temperature 66 °F 78 °F 96 °F (1977)
Min Temperature 57 °F 56 °F 39 °F (1926)
Degree Days  
Heating Degree Days 3 2  
Month to date heating degree days 23 11  
Since 1 June heating degree days 23 11  
Since 1 July heating degree days 6992 6848  
Cooling Degree Days 0 4  
Month to date cooling degree days 0 16  
Year to date cooling degree days 74 65  
Since 1 June cooling degree days 0 16  
Growing Degree Days 12 (Base 50)    
Moisture  
Dew Point 60 °F    
Average Humidity 88    
Maximum Humidity 97    
Minimum Humidity 78    
Precipitation  
Precipitation 0.45 in 0.15 in 1.38 in (2008)
Month to date precipitation 0.50 0.76  
Year to date precipitation 20.69 12.20  
Sea Level Pressure  
Sea Level Pressure 29.95 in    
Wind  
Wind Speed 4 mph (ESE)    
Max Wind Speed 16 mph    
Max Gust Speed 21 mph    
Visibility 4 miles    
Events Rain    
T = Trace of Precipitation, MM = Missing Value Source: NWS Daily Summary

Daily Weather History Graph

Daily Weather History Graph

Search for Another Location

Airport or City:

Trip Planner

Search our weather history database for the weather conditions in past years. The results will help you decide how hot, cold, wet, or windy it might be!

Date:

Astronomy

Jun. 05, 2013 Rise Set
Actual Time 5:32 AM CDT 8:38 PM CDT
Civil Twilight 4:58 AM CDT 9:12 PM CDT
Nautical Twilight 4:15 AM CDT 9:55 PM CDT
Astronomical Twilight 3:24 AM CDT 10:47 PM CDT
Moon 3:39 AM CDT (6/5) 6:03 PM CDT (6/5)
Length of Visible Light 16h 13m
Length of Day
15h 06m
Waning Crescent, 8% of the Moon is Illuminated
Jun 5
Waning Crescent
Jun 8
New
Jun 16
First Quarter
Jun 23
Full
Jun 29
Last Quarter

Hourly Weather History & Observations

Time (CDT) Temp. Dew Point Humidity Pressure Visibility Wind Dir Wind Speed Gust Speed Precip Events Conditions
12:52 AM 60.1 °F 54.0 °F 80% 30.03 in 10.0 mi East 6.9 mph - N/A   Overcast
1:52 AM 60.1 °F 55.0 °F 83% 30.02 in 10.0 mi East 3.5 mph - N/A   Overcast
2:52 AM 59.0 °F 55.0 °F 87% 30.04 in 4.0 mi Calm Calm - 0.02 in Rain Rain
3:52 AM 57.9 °F 55.9 °F 93% 29.99 in 10.0 mi East 6.9 mph - 0.09 in   Mostly Cloudy
4:52 AM 57.9 °F 55.9 °F 93% 30.01 in 7.0 mi East 4.6 mph - 0.00 in   Mostly Cloudy
5:52 AM 57.9 °F 55.9 °F 93% 29.99 in 7.0 mi ESE 8.1 mph - N/A   Mostly Cloudy
6:52 AM 59.0 °F 57.0 °F 93% 29.99 in 5.0 mi SE 3.5 mph - N/A   Overcast
7:28 AM 59.0 °F 57.2 °F 94% 30.01 in 5.0 mi NNE 6.9 mph - N/A   Overcast
7:52 AM 59.0 °F 55.9 °F 90% 29.99 in 7.0 mi ENE 8.1 mph - N/A   Overcast
8:52 AM 59.0 °F 57.0 °F 93% 29.97 in 6.0 mi ESE 10.4 mph - 0.02 in Rain Light Rain
9:52 AM 63.0 °F 57.9 °F 84% 29.95 in 7.0 mi SSE 11.5 mph - 0.00 in   Mostly Cloudy
10:52 AM 64.9 °F 59.0 °F 81% 29.98 in 8.0 mi SSW 3.5 mph - N/A   Mostly Cloudy
11:52 AM 66.0 °F 59.0 °F 78% 29.98 in 7.0 mi SSE 6.9 mph - N/A   Overcast
12:52 PM 66.0 °F 59.0 °F 78% 29.97 in 6.0 mi SSE 6.9 mph - N/A   Haze
1:52 PM 64.0 °F 60.1 °F 87% 29.96 in 1.8 mi South 5.8 mph - 0.05 in Rain Rain
2:19 PM 64.4 °F 62.6 °F 94% 29.96 in 2.5 mi SSE 4.6 mph - 0.17 in Rain Light Rain
2:37 PM 64.4 °F 60.8 °F 88% 29.95 in 3.0 mi SSE 5.8 mph - 0.17 in Rain Light Rain
2:52 PM 64.9 °F 62.1 °F 90% 29.95 in 4.0 mi SSE 4.6 mph - 0.17 in Rain Light Rain
3:42 PM 64.4 °F 62.6 °F 94% 29.94 in 3.0 mi South 5.8 mph - 0.01 in Rain Light Rain
3:52 PM 64.0 °F 62.1 °F 93% 29.94 in 3.0 mi South 5.8 mph - 0.01 in Rain Light Rain
3:56 PM 64.4 °F 62.6 °F 94% 29.94 in 2.5 mi South 4.6 mph - 0.00 in Rain Light Rain
4:08 PM 62.6 °F 60.8 °F 94% 29.94 in 1.5 mi NW 5.8 mph - 0.03 in Rain Light Rain
4:39 PM 62.6 °F 62.6 °F 100% 29.92 in 1.0 mi Calm Calm - 0.07 in Rain Light Rain
4:52 PM 64.0 °F 62.1 °F 93% 29.91 in 1.5 mi NE 4.6 mph - 0.07 in Rain Light Rain
5:05 PM 62.6 °F 62.6 °F 100% 29.92 in 1.5 mi NE 3.5 mph - 0.00 in   Overcast
5:13 PM 62.6 °F 62.6 °F 100% 29.92 in 3.0 mi Calm Calm - 0.00 in   Overcast
5:26 PM 62.6 °F 62.6 °F 100% 29.92 in 3.0 mi NNW 3.5 mph - 0.00 in   Overcast
5:52 PM 64.0 °F 62.1 °F 93% 29.91 in 4.0 mi Calm Calm - 0.00 in   Overcast
6:52 PM 64.0 °F 62.1 °F 93% 29.91 in 5.0 mi Calm Calm - N/A   Overcast
7:37 PM 64.4 °F 60.8 °F 88% 29.92 in 6.0 mi Calm Calm - N/A   Overcast
7:52 PM 64.0 °F 62.1 °F 93% 29.92 in 5.0 mi NW 3.5 mph - N/A   Overcast
8:35 PM 62.6 °F 62.6 °F 100% 29.93 in 1.8 mi Calm Calm - 0.00 in Rain Light Rain
8:52 PM 63.0 °F 61.0 °F 93% 29.92 in 1.8 mi Calm Calm - 0.01 in Rain Light Rain
8:55 PM 62.6 °F 60.8 °F 94% 29.92 in 2.5 mi Calm Calm - 0.00 in Rain Light Rain
9:52 PM 63.0 °F 61.0 °F 93% 29.93 in 6.0 mi North 3.5 mph - 0.00 in   Mostly Cloudy
10:35 PM 62.6 °F 60.8 °F 94% 29.93 in 3.0 mi ESE 3.5 mph - N/A   Overcast
10:52 PM 62.1 °F 60.1 °F 93% 29.93 in 2.5 mi Calm Calm - N/A   Overcast
11:17 PM 60.8 °F 60.8 °F 100% 29.93 in 1.8 mi Calm Calm - N/A   Mostly Cloudy
11:52 PM 60.1 °F 59.0 °F 96% 29.93 in 2.0 mi Calm Calm - N/A   Overcast